Regional Weather Roundup
Issued by NWS Midland/Odessa, TX

Skip options and go directly to product.
Home | Oldest Version | Previous Version | Current Version | All | Text Only | Save Text | Print | Product List | Glossary Off

Skip product version selection by date and time.   

111
ASUS44 KMAF 171210
RWRMAF
MIDLAND AREA WEATHER ROUNDUP
NATIONAL WEATHER SERVICE MIDLAND TX
700 AM CDT THU APR 17 2014

...IN SOUTHWEST TEXAS AND SOUTHEAST NEW MEXICO...

CITY           SKY/WX    TMP DP  RH WIND       PRES   REMARKS
ALPINE         CLEAR     54  18  24 E9        30.01R
ANDREWS        FAIR      48  35  61 E3        29.93R
ARTESIA        CLEAR     50  27  40 N21       30.00R
BIG SPRING     CLOUDY    56  42  58 NE7       29.98R
CARLSBAD       CLEAR     55  26  32 NW23      29.97R
DRYDEN           N/A     50  46  86 NE8       29.89R
FORT STOCKTON  PTCLDY    54  31  41 W16       29.90R
GUAD PASS      CLEAR     50  20  30 E7        30.00R
HOBBS          CLEAR     46  27  46 N10       29.93
MARFA          PTCLDY    57   9  14 NW6       29.97R
MIDLAND AIRPK  MOCLDY    55  41  59 N8        29.95R
MIDLAND INTL   CLOUDY    53  40  61 N10       29.93R
ODESSA         CLOUDY    54  42  64 N9        29.94R
PECOS          PTCLDY    52  32  47 NW7       29.92R
PRESIDIO       FAIR      54  18  24 CALM      29.88R
SEMINOLE       CLOUDY    47  34  61 CALM      29.94R
SNYDER         CLOUDY    54  39  57 N7        30.00R
WINK           MOCLDY    51  39  63 NE7       29.88R
$$
...OTHER STATIONS IN TEXAS...

CITY           SKY/WX    TMP DP  RH WIND       PRES   REMARKS
ABILENE        CLOUDY    55  47  74 SE13      30.00R
AMARILLO       CLOUDY    45  34  65 N15       30.06R WCI  38
AUSTIN         CLOUDY    54  52  93 E3        30.01R
BROWNSVILLE    CLOUDY    66  64  94 E9        29.92F
CORPUS CHRISTI CLOUDY    66  61  84 E16       29.96R
DALLAS FTW     MOCLDY    50  45  83 SE6       30.08R
DEL RIO        PTCLDY    59  53  80 E12       29.90R
EL PASO        MOCLDY    60   2   9 NE10      29.94R
HOUSTON INT    CLOUDY    56  53  90 E12       30.06S
LUBBOCK        CLOUDY    49  32  52 E16       29.94R
SAN ANGELO     CLOUDY    58  50  75 S10       29.91R
SAN ANTONIO    CLOUDY    58  54  86 E6        29.98R
WACO           CLOUDY    54  51  90 E7        30.05R
WICHITA FALLS  NOT AVBL
$$
...OTHER LOCATIONS IN NEW MEXICO...

CITY           SKY/WX    TMP DP  RH WIND       PRES   REMARKS
ALAMAGORDO     CLEAR     48   9  20 N3        29.96R
ALBUQUERQUE    CLEAR     48  30  49 NE12      30.06R
CANNON AFB     CLEAR     41  30  63 N22G30    30.03R WCI  32
CLOVIS         PTCLDY    41  28  60 N23       30.06R WCI  31
HOLLOMAN AFB   PTCLDY    49  22  34 N12       29.95R
ROSWELL        CLEAR     50  30  46 N22       30.02R
RUIDOSO        CLEAR     39  21  48 NW10      30.10R WCI  32
SANTA FE       CLEAR     33  27  78 S3        30.09R
TRUTH OR CONSE CLEAR     51  15  23 NW6       30.00R
TUCUMCARI      CLEAR     44  31  60 N21       30.10R WCI  36
$$

USA.gov is the U.S. government's official web portal to all federal, state and local government web resources and services.